Measurement date,Total daily rainfall,Maximum daily air temperature,Minimum daily air temperature
Date ,Rainfall,Air temperature,Air temperature
Units: Year month day,Units: millimetre,Units: degree Celsius,Units: degree Celsius
2012-01-01,0.8,12.0,4.2
2012-01-02,1.4,11.4,3.9
2012-01-03,5.4,12.5,4.3
2012-01-04,3.0,10.8,5.0
2012-01-05,0.8,8.0,2.5
2012-01-06,0.0,9.0,2.0
2012-01-07,0.0,8.5,6.9
2012-01-08,0.0,8.5,6.2
2012-01-09,0.0,11.0,7.0
2012-01-10,0.0,9.9,6.5
2012-01-11,0.0,10.4,6.7
2012-01-12,1.8,10.4,1.0
2012-01-13,0.0,5.2,-2.0
2012-01-14,0.2,4.0,-1.8
2012-01-15,0.0,4.5,-2.4
2012-01-16,0.2,5.5,-2.0
2012-01-17,0.2,7.0,-1.6
2012-01-18,9.0,10.9,6.0
2012-01-19,0.6,8.0,2.7
2012-01-20,7.2,11.0,5.2
2012-01-21,1.2,10.6,3.9
2012-01-22,0.0,10.0,4.1
2012-01-23,0.2,7.5,0.7
2012-01-24,3.2,8.7,2.5
2012-01-25,1.6,9.0,5.0
2012-01-26,0.6,7.5,0.9
2012-01-27,2.2,7.3,1.5
2012-01-28,0.2,5.2,-0.7
2012-01-29,0.0,2.4,0.0
2012-01-30,0.0,2.7,-0.9
2012-01-31,0.0,1.4,-4.6
2012-02-01,0.2,1.9,-5.1
2012-02-02,0.0,0.3,-5.1
2012-02-03,0.2,1.1,-7.1
2012-02-04,0.0,-0.7,-5.5
2012-02-05,1.8,0.7,-1.0
2012-02-06,0.2,2.1,-0.4
2012-02-07,0.0,1.0,-7.0
2012-02-08,0.0,-0.6,-1.9
2012-02-09,0.0,-0.9,-2.9
2012-02-10,2.2,-0.4,-13.7
2012-02-11,0.0,-0.9,-13.3
2012-02-12,0.2,3.2,0.1
2012-02-13,0.4,5.5,1.0
2012-02-14,0.0,6.9,2.7
2012-02-15,0.0,9.5,4.8
2012-02-16,0.0,9.4,4.7
2012-02-17,0.0,11.0,7.3
2012-02-18,1.6,8.9,0.0
2012-02-19,0.0,4.7,-0.7
2012-02-20,0.0,6.9,1.0
2012-02-21,0.0,10.2,5.1
2012-02-22,1.4,10.7,7.6
2012-02-23,0.0,15.4,8.2
2012-02-24,0.0,13.7,1.7
2012-02-25,0.0,9.2,2.5
2012-02-26,1.0,11.1,3.5
2012-02-27,0.2,10.2,6.6
2012-02-28,0.2,11.2,8.0
2012-02-29,0.0,11.3,4.4
2012-03-01,0.0,12.0,-0.6
2012-03-02,0.2,8.7,0.7
2012-03-03,0.0,12.9,4.3
2012-03-04,15.8,7.6,1.0
2012-03-05,0.2,6.6,1.8
2012-03-06,0.4,7.3,2.2
2012-03-07,2.8,8.6,1.6
2012-03-08,0.0,9.9,3.8
2012-03-09,0.0,10.7,6.6
2012-03-10,0.0,14.0,4.7
2012-03-11,0.2,14.9,3.6
2012-03-12,0.2,6.7,4.4
2012-03-13,0.0,7.5,4.4
2012-03-14,0.2,9.1,-0.1
2012-03-15,0.0,15.9,2.3
2012-03-16,0.0,8.4,6.6
2012-03-17,2.8,9.9,3.0
2012-03-18,0.4,6.9,0.5
2012-03-19,0.0,11.5,3.8
2012-03-20,0.0,14.1,4.9
2012-03-21,0.2,13.7,-0.2
2012-03-22,0.0,16.2,2.7
2012-03-23,0.0,17.0,1.6
2012-03-24,0.2,16.9,0.2
2012-03-25,0.0,13.4,-0.7
2012-03-26,0.0,17.2,3.2
2012-03-27,0.0,17.0,6.6
2012-03-28,0.0,19.2,5.3
2012-03-29,0.0,16.6,4.3
2012-03-30,0.0,11.2,5.0
2012-03-31,0.0,8.7,0.0
2012-04-01,0.0,11.6,2.2
2012-04-02,0.0,11.9,5.9
2012-04-03,7.0,12.5,4.4
2012-04-04,4.6,7.8,4.5
2012-04-05,0.2,8.1,-2.1
2012-04-06,0.2,9.7,3.7
2012-04-07,0.2,7.8,3.5
2012-04-08,1.8,11.9,7.4
2012-04-09,4.2,10.7,4.7
2012-04-10,0.2,11.1,2.3
2012-04-11,0.2,11.3,2.4
2012-04-12,0.0,10.5,3.9
2012-04-13,0.0,10.2,0.5
2012-04-14,0.0,9.0,0.1
2012-04-15,0.8,6.8,-1.1
2012-04-16,1.4,9.1,3.1
2012-04-17,1.6,12.4,3.4
2012-04-18,3.4,10.1,5.8
2012-04-19,2.8,8.5,3.3
2012-04-20,1.2,10.9,1.6
2012-04-21,3.4,11.4,4.6
2012-04-22,3.0,12.0,5.1
2012-04-23,7.2,10.8,5.7
2012-04-24,1.8,9.7,4.7
2012-04-25,9.2,10.7,5.9
2012-04-26,3.0,12.9,8.1
2012-04-27,10.6,9.3,6.9
2012-04-28,20.8,7.5,4.5
2012-04-29,5.0,13.1,5.0
2012-04-30,7.0,16.1,9.5
2012-05-01,3.6,13.2,7.3
2012-05-02,16.2,12.6,6.3
2012-05-03,0.2,7.2,5.3
2012-05-04,0.6,8.3,2.4
2012-05-05,0.0,7.7,3.2
2012-05-06,0.0,8.3,1.2
2012-05-07,3.8,11.3,8.4
2012-05-08,2.2,16.4,8.8
2012-05-09,4.8,15.6,10.0
2012-05-10,0.8,18.5,9.3
2012-05-11,0.0,13.0,3.0
2012-05-12,0.0,12.8,3.8
2012-05-13,1.0,14.4,6.7
2012-05-14,1.0,12.3,3.9
2012-05-15,2.2,9.2,1.6
2012-05-16,0.0,11.9,6.4
2012-05-17,0.0,12.7,6.4
2012-05-18,1.2,15.0,9.5
2012-05-19,0.2,10.7,7.0
2012-05-20,0.0,9.5,7.7
2012-05-21,0.0,14.5,8.3
2012-05-22,0.0,21.5,9.8
2012-05-23,0.0,20.3,9.9
2012-05-24,0.0,22.4,9.7
2012-05-25,0.0,22.4,10.9
2012-05-26,0.0,23.0,8.6
2012-05-27,0.0,24.5,9.7
2012-05-28,0.0,25.4,11.6
2012-05-29,0.0,17.6,11.0
2012-05-30,2.2,22.4,11.7
2012-05-31,0.8,16.2,12.9
2012-06-01,2.0,17.6,9.4
2012-06-02,10.6,14.4,8.5
2012-06-03,15.6,9.9,6.3
2012-06-04,1.2,11.2,5.0
2012-06-05,1.4,14.4,10.4
2012-06-06,0.6,17.6,11.0
2012-06-07,8.4,17.0,11.8
2012-06-08,1.6,13.3,9.8
2012-06-09,0.0,15.4,7.1
2012-06-10,13.4,17.9,10.0
2012-06-11,8.6,10.7,9.3
2012-06-12,0.0,12.4,5.4
2012-06-13,0.0,15.9,6.2
2012-06-14,3.2,16.6,10.0
2012-06-15,0.4,18.0,9.4
2012-06-16,0.0,17.3,11.6
2012-06-17,13.0,17.9,10.6
2012-06-18,0.2,17.4,8.2
2012-06-19,0.0,19.6,10.4
2012-06-20,8.0,20.1,9.5
2012-06-21,1.6,19.4,10.1
2012-06-22,2.0,15.2,10.2
2012-06-23,10.4,16.3,10.2
2012-06-24,0.0,17.7,9.5
2012-06-25,0.0,18.7,11.1
2012-06-26,0.6,20.7,16.4
2012-06-27,0.2,21.7,15.2
2012-06-28,0.0,26.1,12.0
2012-06-29,0.0,19.8,14.4
2012-06-30,0.2,19.6,9.5
2012-07-01,0.2,16.1,11.2
2012-07-02,2.0,16.6,13.6
2012-07-03,2.2,18.9,15.3
2012-07-04,0.0,21.5,15.1
2012-07-05,8.0,22.9,13.7
2012-07-06,5.4,18.1,10.0
2012-07-07,7.8,18.5,12.5
2012-07-08,3.2,17.6,12.7
2012-07-09,0.0,18.5,12.3
2012-07-10,7.0,16.9,9.1
2012-07-11,5.8,16.4,7.8
2012-07-12,14.6,17.8,12.0
2012-07-13,19.2,17.6,12.2
2012-07-14,3.6,16.1,9.9
2012-07-15,0.2,17.6,10.7
2012-07-16,5.6,18.0,12.5
2012-07-17,0.0,21.5,15.1
2012-07-18,5.2,19.1,11.4
2012-07-19,11.6,15.7,10.3
2012-07-20,4.4,15.2,8.6
2012-07-21,0.0,19.4,11.2
2012-07-22,0.0,22.6,11.1
2012-07-23,0.0,26.0,13.1
2012-07-24,0.0,27.7,13.7
2012-07-25,0.0,27.5,12.5
2012-07-26,0.0,26.1,13.1
2012-07-27,0.0,23.0,11.9
2012-07-28,0.0,19.5,9.7
2012-07-29,7.0,18.7,8.0
2012-07-30,2.0,17.4,10.2
2012-07-31,0.0,19.4,11.5
2012-08-01,0.0,22.0,13.5
2012-08-02,5.8,21.0,11.2
2012-08-03,0.4,21.4,11.9
2012-08-04,5.0,19.8,10.2
2012-08-05,2.6,19.5,12.2
2012-08-06,3.0,21.3,10.5
2012-08-07,0.8,19.9,13.8
2012-08-08,0.0,22.1,11.0
2012-08-09,0.0,23.7,11.7
2012-08-10,0.0,24.9,10.8
2012-08-11,0.0,22.2,11.1
2012-08-12,0.0,25.1,14.3
2012-08-13,1.4,22.9,14.7
2012-08-14,0.0,24.7,14.7
2012-08-15,1.4,23.7,12.7
2012-08-16,0.0,23.1,16.1
2012-08-17,0.0,26.1,18.5
2012-08-18,0.0,29.5,17.0
2012-08-19,0.0,29.8,14.6
2012-08-20,0.0,23.1,13.7
2012-08-21,0.0,21.8,12.0
2012-08-22,3.2,20.7,11.2
2012-08-23,0.0,20.4,12.8
2012-08-24,0.0,20.4,13.9
2012-08-25,5.8,21.4,13.2
2012-08-26,0.0,20.6,10.2
2012-08-27,0.4,19.7,13.2
2012-08-28,0.0,22.1,12.8
2012-08-29,4.8,18.1,11.8
2012-08-30,0.6,15.3,5.7
2012-08-31,0.2,16.7,11.0
2012-09-01,0.0,21.3,11.8
2012-09-02,0.2,20.1,11.2
2012-09-03,0.0,23.4,12.5
2012-09-04,0.0,22.1,8.3
2012-09-05,0.0,18.9,7.2
2012-09-06,0.0,20.5,11.2
2012-09-07,0.0,24.6,11.1
2012-09-08,0.0,26.3,11.0
2012-09-09,0.0,27.4,15.0
2012-09-10,0.0,20.6,12.2
2012-09-11,0.0,16.2,6.5
2012-09-12,2.0,16.1,6.0
2012-09-13,0.0,16.1,10.4
2012-09-14,0.0,17.9,8.6
2012-09-15,0.0,19.8,9.7
2012-09-16,0.0,18.2,10.2
2012-09-17,0.0,17.2,9.7
2012-09-18,0.0,15.5,5.2
2012-09-19,0.0,15.1,8.3
2012-09-20,0.0,16.5,10.8
2012-09-21,2.4,15.2,4.1
2012-09-22,0.0,14.0,4.6
2012-09-23,16.4,12.1,8.6
2012-09-24,7.6,14.1,7.8
2012-09-25,0.2,15.2,9.5
2012-09-26,4.6,14.1,9.7
2012-09-27,0.4,15.4,7.7
2012-09-28,0.0,15.2,7.2
2012-09-29,0.0,13.8,6.8
2012-09-30,1.2,16.3,10.3
2012-10-01,0.6,16.7,9.7
2012-10-02,0.8,16.5,9.8
2012-10-03,0.0,14.2,5.8
2012-10-04,15.2,14.4,8.7
2012-10-05,11.2,12.6,6.3
2012-10-06,0.0,14.1,4.8
2012-10-07,0.0,13.6,5.7
2012-10-08,0.4,13.8,4.2
2012-10-09,0.0,12.3,5.5
2012-10-10,0.0,13.7,6.5
2012-10-11,4.2,13.9,9.8
2012-10-12,0.8,12.0,4.7
2012-10-13,0.2,10.7,2.5
2012-10-14,0.0,10.8,3.4
2012-10-15,3.6,10.8,6.4
2012-10-16,3.0,13.3,6.5
2012-10-17,3.6,15.5,10.8
2012-10-18,0.0,15.0,9.9
2012-10-19,6.2,12.1,7.8
2012-10-20,3.0,12.8,7.8
2012-10-21,4.8,11.6,8.3
2012-10-22,0.8,13.7,10.5
2012-10-23,0.2,12.5,11.1
2012-10-24,0.2,14.2,10.1
2012-10-25,0.0,11.0,6.1
2012-10-26,0.4,7.7,0.9
2012-10-27,0.8,6.1,0.5
2012-10-28,1.6,8.8,4.1
2012-10-29,0.2,10.7,3.9
2012-10-30,0.2,9.3,4.4
2012-10-31,9.0,11.5,5.3
2012-11-01,0.4,7.7,2.8
2012-11-02,0.0,8.0,1.6
2012-11-03,1.6,7.5,1.5
2012-11-04,16.4,5.3,1.7
2012-11-05,0.0,8.1,0.8
2012-11-06,2.2,9.1,2.1
2012-11-07,0.0,9.0,5.5
2012-11-08,0.0,11.4,6.3
2012-11-09,7.6,10.2,6.8
2012-11-10,0.4,8.9,1.8
2012-11-11,0.0,9.4,2.8
2012-11-12,2.0,11.4,6.0
2012-11-13,0.0,14.4,10.0
2012-11-14,0.2,11.5,4.9
2012-11-15,0.2,6.6,4.8
2012-11-16,0.4,11.2,5.8
2012-11-17,0.2,11.4,1.1
2012-11-18,0.0,7.5,2.0
2012-11-19,1.8,10.6,4.7
2012-11-20,5.2,13.1,8.5
2012-11-21,8.6,9.2,5.2
2012-11-22,9.6,12.2,4.9
2012-11-23,0.2,8.9,2.6
2012-11-24,11.6,10.3,2.4
2012-11-25,0.8,9.1,6.9
2012-11-26,2.2,8.4,6.4
2012-11-27,1.6,7.3,4.2
2012-11-28,0.0,5.4,0.9
2012-11-29,0.0,4.8,-1.7
2012-11-30,0.2,2.6,-2.2
2012-12-01,0.2,3.6,-2.2
2012-12-02,5.2,6.1,-1.8
2012-12-03,0.2,7.9,1.5
2012-12-04,0.2,5.4,-0.1
2012-12-05,3.8,2.3,-3.5
2012-12-06,3.0,3.7,-2.9
2012-12-07,1.2,5.0,1.2
2012-12-08,0.4,6.6,0.9
2012-12-09,0.0,8.4,1.8
2012-12-10,0.0,4.1,-1.6
2012-12-11,0.2,-0.9,-5.3
2012-12-12,0.2,0.3,-5.4
2012-12-13,0.2,3.6,-4.1
2012-12-14,6.8,7.9,4.0
2012-12-15,0.6,9.8,3.4
2012-12-16,0.2,8.3,4.1
2012-12-17,1.6,8.0,4.5
2012-12-18,0.2,6.8,1.1
2012-12-19,16.0,6.1,3.8
2012-12-20,4.2,7.8,5.6
2012-12-21,2.8,8.2,5.1
2012-12-22,12.0,13.0,6.5
2012-12-23,5.0,10.6,6.7
2012-12-24,4.4,11.2,6.4
2012-12-25,0.8,8.0,4.0
2012-12-26,2.0,9.1,4.0
2012-12-27,4.6,6.9,3.7
2012-12-28,1.4,11.4,5.6
2012-12-29,2.4,11.1,4.0
2012-12-30,0.0,10.5,4.6
2012-12-31,3.2,10.8,3.4
2013-01-01,0,7.8,2.8
2013-01-02,1.4,10.2,4.6
2013-01-03,0,10.3,8.6
2013-01-04,0,9.1,6.8
2013-01-05,0.2,10.1,4.2
2013-01-06,0,8.4,4.5
2013-01-07,0,8.6,6.5
2013-01-08,5.2,10.6,6.2
2013-01-09,0.2,6.7,-1.4
2013-01-10,0.6,1.9,-0.1
2013-01-11,0.2,3.1,-0.9
2013-01-12,0,3.4,-2.1
2013-01-13,0.2,1.4,-1.6
2013-01-14,2.6,1.1,-1.7
2013-01-15,0.8,0.3,-4.4
2013-01-16,0.2,-3.4,-8.6
2013-01-17,0,-1.2,-7.6
2013-01-18,0,-0.6,-2.9
2013-01-19,0,-0.7,-1.9
2013-01-20,0,-1.0,-2.6
2013-01-21,0.6,-1.1,-7.2
2013-01-22,1.4,0.1,-5.9
2013-01-23,1.2,-0.2,-1.0
2013-01-24,1.4,0.4,-4.1
2013-01-25,5.4,1.6,-2.0
2013-01-26,14.2,9.6,1.7
2013-01-27,0,9.2,2.1
2013-01-28,1.8,10.0,2.6
2013-01-29,7.6,13.6,8.3
2013-01-30,1,10.3,5.6
2013-01-31,0.6,9.2,4.3
2013-02-01,0.6,6.6,0.9
2013-02-02,0,4.0,-1.1
2013-02-03,0,9.0,2.5
2013-02-04,3,8.7,1.1
2013-02-05,1.2,4.4,1.3
2013-02-06,0.2,4.4,0.1
2013-02-07,3,4.5,-0.9
2013-02-08,0.4,3.9,-0.3
2013-02-09,2,3.3,0.6
2013-02-10,3.4,3.4,-0.3
2013-02-11,1,1.0,-0.3
2013-02-12,0,1.0,-1.9
2013-02-13,7.6,5.5,-1.3
2013-02-14,1,8.7,1.7
2013-02-15,0,8.1,2.6
2013-02-16,0,9.2,0.8
2013-02-17,0,8.2,1.7
2013-02-18,0,5.3,-1.0
2013-02-19,0.2,7.8,0.2
2013-02-20,0,2.5,0.0
2013-02-21,0,1.3,-1.1
2013-02-22,0,0.3,-1.1
2013-02-23,0,1.3,-0.6
2013-02-24,0.2,1.3,-0.3
2013-02-25,0,3.2,1.5
2013-02-26,0.2,4.2,1.2
2013-02-27,0.2,6.1,0.2
2013-02-28,0.2,8.1,0.9
2013-03-01,0.2,5.6,1.1
2013-03-02,0,4.9,-0.9
2013-03-03,0.2,7.3,0.3
2013-03-04,0,9.3,-1.3
2013-03-05,0,13.2,2.2
2013-03-06,2,10.7,3.7
2013-03-07,4.4,8.5,4.7
2013-03-08,1.2,7.3,3.5
2013-03-09,0.6,4.3,-0.2
2013-03-10,5.8,1.1,-2.7
2013-03-11,0,-0.5,-3.5
2013-03-12,0,2.3,-0.8
2013-03-13,0.4,4.0,-2.8
2013-03-14,4,5.2,-1.0
2013-03-15,3.4,8.2,3.4
2013-03-16,3.8,7.8,2.0
2013-03-17,14,7.5,-1.4
2013-03-18,0.2,6.0,-1.0
2013-03-19,0.6,6.1,-0.1
2013-03-20,0.6,2.2,-0.4
2013-03-21,0.4,4.5,1.1
2013-03-22,1.8,3.5,-0.6
2013-03-23,5.2,-0.4,-2.4
2013-03-24,2.6,0.0,-2.4
2013-03-25,0,0.6,-0.8
2013-03-26,0,1.5,-2.0
2013-03-27,0,2.1,-2.6
2013-03-28,0.2,2.8,-2.5
2013-03-29,0,3.1,-2.0
2013-03-30,0,3.5,-2.8
2013-03-31,0,3.9,-1.1
2013-04-01,0,4.6,-3.7
2013-04-02,0,6.8,-2.1
2013-04-03,0,6.0,-0.6
2013-04-04,0,3.8,-0.3
2013-04-05,0,7.1,-0.9
2013-04-06,0,8.3,-1.0
2013-04-07,0,9.3,-1.3
2013-04-08,0,9.0,-1.9
2013-04-09,0,10.3,1.5
2013-04-10,1.6,11.5,2.7
2013-04-11,2.6,7.3,4.9
2013-04-12,10.8,10.2,4.1
2013-04-13,3,12.6,8.9
2013-04-14,0,18.5,9.5
2013-04-15,0,15.7,8.6
2013-04-16,0,15.4,6.9
2013-04-17,0,17.2,8.2
2013-04-18,0.2,13.9,6.6
2013-04-19,1.2,8.6,1.3
2013-04-20,0,12.9,0.1
2013-04-21,0,12.8,4.8
2013-04-22,0,12.9,8.6
2013-04-23,0,18.7,8.3
2013-04-24,0.2,17.9,10.7
2013-04-25,6.2,20.1,6.1
2013-04-26,1.2,10.5,2.4
2013-04-27,1.6,9.0,0.2
2013-04-28,0.2,10.7,5.3
2013-04-29,0,13.0,3.5
2013-04-30,0,11.3,-0.5
2013-05-01,0,14.1,3.7
2013-05-02,0,15.6,4.8
2013-05-03,0,17.5,7.5
2013-05-04,1.6,14.7,6.0
2013-05-05,0,18.3,8.8
2013-05-06,0,21.2,8.6
2013-05-07,1,19.4,9.5
2013-05-08,0,17.1,4.9
2013-05-09,0.6,13.8,9.4
2013-05-10,3.6,16.3,5.9
2013-05-11,5,12.9,5.1
2013-05-12,1.8,12.8,9.5
2013-05-13,1.6,12.1,4.6
2013-05-14,7.8,10.4,5.7
2013-05-15,0.2,11.5,3.6
2013-05-16,0,14.3,4.9
2013-05-17,0,9.8,7.8
2013-05-18,0,12.6,5.8
2013-05-19,0,15.9,9.6
2013-05-20,0.2,16.1,9.7
2013-05-21,0.2,12.3,7.9
2013-05-22,1.2,14.6,2.8
2013-05-23,3.8,8.4,4.2
2013-05-24,6.8,8.2,3.6
2013-05-25,0,13.5,4.1
2013-05-26,0,17.6,5.6
2013-05-27,4,16.7,8.3
2013-05-28,5,12.8,9.4
2013-05-29,6.8,11.9,8.7
2013-05-30,0,12.3,10.0
2013-05-31,0,20.3,10.2
2013-06-01,0,19.5,10.9
2013-06-02,0,16.2,7.1
2013-06-03,0,17.3,4.4
2013-06-04,0,18.0,8.7
2013-06-05,0,16.0,5.8
2013-06-06,0,20.0,6.3
2013-06-07,0,19.7,6.8
2013-06-08,0,14.4,10.0
2013-06-09,0,13.8,9.6
2013-06-10,0,13.6,8.2
2013-06-11,0,19.0,12.8
2013-06-12,0,19.6,14.1
2013-06-13,0,18.0,9.3
2013-06-14,3,19.5,11.8
2013-06-15,2,16.9,11.5
2013-06-16,0.2,18.6,10.4
2013-06-17,0,20.3,11.1
2013-06-18,0,21.7,16.1
2013-06-19,0,25.4,15.5
2013-06-20,1.6,21.4,14.3
2013-06-21,1.6,22.0,12.0
2013-06-22,1.2,17.9,12.9
2013-06-23,0,17.8,11.3
2013-06-24,0,17.0,7.6
2013-06-25,0,20.0,9.9
2013-06-26,0,21.7,12.1
2013-06-27,2.8,19.2,13.1
2013-06-28,2.6,19.4,12.0
2013-06-29,0,20.2,14.6
2013-06-30,0,24.6,13.2
2013-07-01,0,19.5,12.1
2013-07-02,2,18.2,15.0
2013-07-03,0,20.9,12.6
2013-07-04,0,24.2,13.1
2013-07-05,0,25.3,13.1
2013-07-06,0,27.5,14.7
2013-07-07,0,28.6,14.6
2013-07-08,0,23.6,11.7
2013-07-09,0,25.2,10.8
2013-07-10,0,20.5,11.9
2013-07-11,0,20.3,10.7
2013-07-12,0,25.7,15.6
2013-07-13,0,29.6,16.1
2013-07-14,0,26.9,14.5
2013-07-15,0,28.8,14.9
2013-07-16,0,30.2,15.5
2013-07-17,0,30.7,15.2
2013-07-18,0,28.2,14.0
2013-07-19,0,29.2,16.6
2013-07-20,0,22.4,16.5
2013-07-21,0,24.6,16.1
2013-07-22,17.4,33.0,18.3
2013-07-23,1.6,26.9,17.2
2013-07-24,9,27.3,17.1
2013-07-25,0,26.4,15.5
2013-07-26,0,26.5,14.3
2013-07-27,5.6,27.3,16.4
2013-07-28,0.2,24.8,16.2
2013-07-29,1.6,23.8,14.6
2013-07-30,1.6,22.7,16.7
2013-07-31,0.2,24.9,17.7
2013-08-01,0,33.7,17.9
2013-08-02,0,26.8,16.1
2013-08-03,0,24.9,14.6
2013-08-04,0,24.5,16.5
2013-08-05,11.6,24.8,11.5
2013-08-06,0,21.2,10.0
2013-08-07,0,21.6,11.2
2013-08-08,1,24.4,15.9
2013-08-09,0.4,22.2,14.5
2013-08-10,0,20.6,14.1
2013-08-11,0,22.4,12.6
2013-08-12,0,19.6,10.1
2013-08-13,0,19.9,10.9
2013-08-14,0.6,23.0,16.7
2013-08-15,1.2,24.3,16.8
2013-08-16,4.2,22.1,13.3
2013-08-17,0.2,20.4,15.9
2013-08-18,0,23.7,13.5
2013-08-19,0,21.6,12.5
2013-08-20,0,24.1,13.9
2013-08-21,5.4,26.2,16.9
2013-08-22,4.2,19.8,16.4
2013-08-23,2.4,25.4,16.9
2013-08-24,27,20.5,14.3
2013-08-25,0,23.6,16.0
2013-08-26,0,24.6,13.4
2013-08-27,0,22.2,12.5
2013-08-28,0,22.9,13.6
2013-08-29,0,23.4,14.6
2013-08-30,0,23.7,12.1
2013-08-31,0,19.0,9.9
2013-09-01,0,20.4,12.5
2013-09-02,0,24.6,14.2
2013-09-03,0,23.9,14.5
2013-09-04,0,25.9,14.1
2013-09-05,0,28.3,15.7
2013-09-06,1,17.1,10.3
2013-09-07,0,18.6,9.2
2013-09-08,0.6,16.7,9.3
2013-09-09,1,14.8,9.4
2013-09-10,2,15.1,11.3
2013-09-11,2,15.8,12.5
2013-09-12,2.6,18.7,13.2
2013-09-13,18.2,16.7,8.9
2013-09-14,0.2,14.1,7.3
2013-09-15,1.6,15.1,7.7
2013-09-16,0.2,13.5,7.4
2013-09-17,2,11.6,8.5
2013-09-18,0,14.1,8.0
2013-09-19,1,16.0,10.2
2013-09-20,0,17.0,9.8
2013-09-21,0,18.3,12.1
2013-09-22,0.2,22.1,13.3
2013-09-23,0,17.6,11.0
2013-09-24,0,20.1,12.3
2013-09-25,0,18.2,9.8
2013-09-26,0,17.4,7.0
2013-09-27,0,16.4,6.5
2013-09-28,0,19.3,9.7
2013-09-29,0,18.2,11.1
2013-09-30,0,18.7,6.9
2013-10-01,3.4,17.1,11.3
2013-10-02,1.2,14.9,12.3
2013-10-03,0.6,17.7,14.6
2013-10-04,0,19.8,13.2
2013-10-05,0,17.1,10.3
2013-10-06,0,18.5,11.1
2013-10-07,0,18.3,12.7
2013-10-08,0,20.1,12.2
2013-10-09,0,14.2,7.2
2013-10-10,1,10.4,7.7
2013-10-11,2,12.5,10.3
2013-10-12,15,12.3,9.6
2013-10-13,8.8,11.9,8.1
2013-10-14,1,10.5,7.4
2013-10-15,0,12.9,5.6
2013-10-16,3.2,12.9,7.6
2013-10-17,0.2,16.1,9.5
2013-10-18,1.4,14.2,10.4
2013-10-19,2.6,16.3,11.6
2013-10-20,6,15.9,10.5
2013-10-21,1,16.6,13.4
2013-10-22,1.6,16.9,12.9
2013-10-23,0.6,15.4,6.2
2013-10-24,0.6,15.1,9.3
2013-10-25,0.2,17.1,12.8
2013-10-26,5.6,16.3,10.2
2013-10-27,10.2,15.6,10.9
2013-10-28,0.8,11.5,6.6
2013-10-29,0,11.3,4.2
2013-10-30,0.8,12.7,5.9
2013-10-31,1,12.2,9.2
2013-11-01,2.8,12.7,8.8
2013-11-02,0.2,13.1,6.1
2013-11-03,7.8,10.7,4.0
2013-11-04,1.4,8.7,3.1
2013-11-05,0.8,11.1,5.9
2013-11-06,4.8,14.5,7.2
2013-11-07,0,9.5,4.0
2013-11-08,7.4,8.9,3.0
2013-11-09,1.2,6.4,2.4
2013-11-10,0,7.8,1.9
2013-11-11,5.2,11.9,7.5
2013-11-12,0.2,11.1,2.1
2013-11-13,0.6,8.1,3.4
2013-11-14,0,8.9,2.7
2013-11-15,0,8.4,3.2
2013-11-16,0,8.0,6.0
2013-11-17,0.8,8.7,6.9
2013-11-18,1,7.7,1.2
2013-11-19,0,4.1,-1.7
2013-11-20,6.2,5.7,2.0
2013-11-21,0,7.2,1.5
2013-11-22,0,6.8,1.8
2013-11-23,0.2,5.2,2.8
2013-11-24,0.4,7.0,2.8
2013-11-25,0,5.6,-0.4
2013-11-26,0,6.4,0.1
2013-11-27,0,10.7,6.5
2013-11-28,0,8.7,6.3
2013-11-29,0,9.1,4.3
2013-11-30,0,7.2,1.6
2013-12-01,0,8.3,4.1
2013-12-02,0,8.0,4.6
2013-12-03,0.4,6.5,4.2
2013-12-04,0.4,7.3,1.5
2013-12-05,1,9.6,2.0
2013-12-06,0.2,5.7,3.2
2013-12-07,0,8.7,5.6
2013-12-08,0,9.8,5.6
2013-12-09,0.4,9.3,2.0
2013-12-10,0.2,7.4,0.5
2013-12-11,0,4.4,0.0
2013-12-12,0.2,10.2,4.1
2013-12-13,1,11.3,3.5
2013-12-14,0.2,10.6,4.3
2013-12-15,0.4,13.1,6.4
2013-12-16,6.8,13.4,4.0
2013-12-17,1.2,7.0,3.0
2013-12-18,3,9.7,4.1
2013-12-19,0.6,6.7,2.3
2013-12-20,0.8,10.1,2.9
2013-12-21,4.2,11.4,5.7
2013-12-22,0.2,7.3,2.8
2013-12-23,9.8,11.3,6.1
2013-12-24,1.8,7.6,2.4
2013-12-25,1.6,5.9,1.9
2013-12-26,2.2,9.8,2.1
2013-12-27,0,9.3,2.8
2013-12-28,0,6.5,0.9
2013-12-29,0.2,9.3,1.5
2013-12-30,1.2,9.7,4.4
2013-12-31,4.6,9.6,4.1
